Wetbulb
42.67 42.51 42.43 43.13 43.15 43.02 43.40 43.63 43.41 43.26 43.25 43.14 42.99 42.86 43.23 43.33 43.41 40.48 37.63 40.04 34.88 29.34 28.72 30.72 30.48 25.15 25.78 24.23 20.52 22.53 19.53 20.90 18.12 13.77 15.40 13.76 12.25 13.55 11.75 16.93 12.29 13.70 14.30 11.07 13.64 9.26 8.76 23.50 23.30 16.14 20.27 23.21 24.35 25.22
42.56 42.17 42.52 42.69 42.89 42.91 43.43 43.16 43.14 43.10 42.85 42.54 42.71 43.08 43.01 42.98 42.77 41.33 34.45 38.78 39.26 31.42 28.44 33.33 33.50 34.02 31.69 30.35 26.65 24.35 19.73 21.24 24.00 19.88 19.09 18.72 15.86 13.81 11.00 9.88 19.75 14.81 12.99 10.22 15.69 16.81 22.17 23.18 21.41 23.94 24.38 23.32 24.57 25.28
42.17 41.84 41.99 42.32 42.72 42.98 42.89 43.10 42.92 42.83 42.52 42.29 42.80 42.87 42.74 42.63 41.75 39.11 35.25 36.43 34.72 28.95 28.80 29.01 26.73 30.73 33.50 32.34 33.53 21.88 25.36 28.34 27.18 28.47 23.71 21.23 14.31 17.07 10.44 11.08 12.81 18.93 19.94 13.90 14.61 21.30 18.08 21.59 24.19 24.57 25.29 24.83 26.79 28.03
41.54 41.62 41.82 42.53 42.71 42.49 43.03 42.88 42.72 42.64 42.30 42.43 42.77 42.54 42.30 41.80 40.53 38.86 34.19 35.38 33.85 28.76 21.94 23.93 32.78 27.10 31.82 32.61 31.98 32.50 30.51 31.18 30.19 29.02 23.77 20.53 17.74 20.69 14.89 15.34 15.74 14.32 17.43 12.85 13.41 18.84 18.58 22.47 22.77 23.89 25.60 26.96 27.90 28.78
41.65 41.63 42.57 42.12 42.36 42.56 42.67 42.66 42.55 42.12 41.99 42.30 42.25 42.01 41.57 40.76 39.95 37.74 35.84 35.80 36.42 27.15 19.87 22.46 28.22 28.05 31.79 31.72 31.45 32.46 29.54 27.89 26.23 23.80 22.43 19.50 22.52 21.68 20.60 19.60 10.84 14.31 13.87 11.85 10.85 17.69 18.21 19.98 23.11 25.69 25.01 25.58 27.65 28.06
41.57 42.21 41.49 41.34 41.94 42.20 42.50 42.48 42.09 41.63 41.88 41.83 41.60 41.05 40.48 39.70 38.47 35.49 30.58 35.76 37.87 36.07 24.93 19.13 27.09 23.90 28.11 30.18 28.98 25.67 26.17 25.32 27.18 23.19 20.67 22.78 23.37 19.93 14.61 11.84 13.60 14.85 17.28 19.67 17.66 22.58 23.08 23.74 25.43 26.94 25.92 26.96 27.84 26.83
41.89 40.78 40.70 41.49 42.01 42.72 42.24 41.44 41.31 41.63 41.58 41.34 40.50 39.76 38.87 38.80 37.04 32.00 28.60 33.86 36.89 33.72 25.37 18.47 20.78 24.92 26.49 27.61 30.13 27.66 26.43 23.12 25.27 22.41 18.85 19.21 17.16 20.47 11.70 4.01 10.97 14.26 16.35 18.77 23.41 24.29 21.81 24.54 23.06 27.31 27.70 27.50 27.98 27.07
40.76 40.43 40.76 41.54 42.58 42.25 40.68 41.06 41.25 41.19 40.96 39.99 38.82 37.95 38.80 38.81 37.24 33.57 34.59 37.05 36.26 31.04 27.44 13.62 15.87 20.15 25.61 22.10 20.94 27.45 23.85 22.76 21.66 18.32 19.62 14.78 17.49 14.82 6.70 10.50 12.57 14.11 16.87 18.61 23.25 25.58 25.91 26.69 26.64 26.32 26.88 25.97 24.34 24.18
39.89 40.12 40.79 41.73 42.70 41.15 40.30 40.92 40.89 40.59 39.63 38.13 36.43 38.08 34.48 32.20 28.79 31.20 35.52 36.64 34.98 28.29 17.40 16.09 12.41 11.31 23.56 22.91 22.09 23.20 25.57 16.98 21.93 14.88 14.18 16.78 11.45 5.59 11.20 12.66 13.38 15.81 17.95 20.72 22.86 23.29 23.62 23.35 23.78 24.73 24.86 24.25 23.35 23.66
39.14 39.68 40.28 41.41 42.11 40.43 40.32 40.51 40.34 39.45 37.67 35.80 32.75 28.27 21.98 28.90 33.09 32.37 29.34 23.96 20.87 21.44 21.63 13.33 18.91 14.26 19.62 19.43 21.13 20.53 22.74 16.41 10.02 14.82 20.81 14.41 10.67 15.02 16.01 17.15 17.94 18.79 19.97 20.50 18.62 18.18 21.36 21.07 21.89 22.69 23.15 24.28 24.18 23.72
39.43 39.79 40.38 41.43 40.67 39.56 40.06 39.86 39.18 37.12 35.60 30.37 25.61 22.33 28.83 31.95 27.09 21.85 10.84 10.06 12.53 9.40 16.72 15.93 14.33 13.36 22.10 14.80 15.94 19.49 16.28 16.41 6.88 14.14 13.09 10.67 8.21 12.47 16.64 17.05 18.67 19.92 20.61 20.97 21.15 21.57 22.09 21.82 21.68 21.90 22.49 23.63 23.94 24.08
38.87 39.23 40.42 40.83 39.08 39.77 39.42 38.64 36.62 32.46 28.60 28.74 27.76 27.36 26.54 19.69 15.03 6.92 3.21 10.22 10.16 8.94 14.84 10.94 12.92 16.72 18.16 22.05 20.31 18.02 12.45 12.86 5.01 18.31 10.98 5.93 11.54 15.32 15.91 16.47 17.95 19.21 19.74 19.57 20.55 19.95 20.50 21.00 22.25 22.17 22.39 22.53 23.40 24.22
38.39 39.32 40.16 38.33 39.30 39.19 38.42 37.09 33.80 33.89 31.90 27.37 21.31 11.55 13.28 8.85 2.06 -0.26 -2.65 4.61 7.08 12.57 13.52 14.08 12.22 18.21 20.15 22.02 18.69 13.46 7.58 8.98 18.10 10.26 8.86 10.16 13.83 15.74 16.33 17.13 17.53 19.01 19.26 19.49 19.53 20.29 20.47 20.07 21.10 21.47 21.44 23.07 23.57 23.02
38.01 38.86 39.88 37.51 39.01 38.40 36.63 34.34 31.98 29.30 25.02 13.74 8.97 1.80 4.30 -0.08 4.26 6.06 5.16 7.46 12.45 10.08 13.20 14.47 15.21 17.37 19.57 17.20 16.15 5.51 13.17 15.75 4.78 2.84 5.06 10.88 13.95 15.72 17.08 17.69 17.40 16.80 17.84 17.98 18.39 19.26 19.03 18.92 18.80 19.88 20.43 21.30 21.47 21.12
37.89 39.25 38.22 38.25 38.01 37.12 34.37 32.51 31.08 27.16 21.64 9.96 9.48 -0.47 1.51 9.67 8.43 7.82 8.77 9.85 14.77 16.21 15.22 14.24 15.77 17.36 16.99 12.63 12.67 10.21 4.65 3.71 9.94 6.72 10.79 10.67 14.84 16.44 16.55 16.91 16.51 16.53 16.61 16.68 17.61 17.48 17.86 18.11 17.70 17.67 18.99 19.71 20.04 20.20
38.64 37.33 35.88 37.76 36.78 33.68 32.62 30.33 27.85 24.82 15.01 11.56 9.82 4.76 11.77 7.70 7.15 11.01 11.12 10.89 16.43 15.70 16.41 16.15 12.16 10.32 8.36 10.62 3.80 2.78 3.17 5.10 10.05 11.43 14.89 12.77 15.05 15.42 15.58 16.29 16.25 16.48 16.25 16.28 16.85 17.62 17.59 17.11 16.86 17.24 18.20 18.49 18.87 19.13
38.04 33.31 37.38 36.37 34.22 31.36 31.62 26.55 20.10 12.26 11.33 8.65 6.83 13.87 12.10 11.69 8.17 11.39 14.49 13.46 16.47 14.05 13.61 13.50 5.26 6.17 11.85 5.50 2.16 9.08 8.23 12.18 13.72 13.83 15.12 15.38 14.77 14.89 15.46 16.17 16.30 16.09 15.45 15.69 15.62 16.04 16.44 17.81 17.67 16.72 15.88 17.53 18.10 18.34
32.32 34.65 35.45 33.92 30.71 28.28 22.49 20.53 15.18 11.53 6.94 7.31 7.82 9.42 14.74 15.89 12.28 13.65 12.72 15.01 14.98 15.42 14.69 7.86 11.51 7.45 4.40 4.02 6.76 10.18 12.96 14.56 15.53 14.80 14.66 14.74 14.57 14.81 15.74 14.59 15.00 15.52 15.78 15.17 14.77 14.90 15.06 14.84 15.21 16.37 16.81 17.21 17.39 17.34
34.03 32.37 32.49 31.34 28.98 22.91 14.72 11.93 13.32 6.87 7.32 12.29 13.70 14.50 14.32 14.21 15.27 12.34 14.58 16.44 16.98 16.83 13.61 8.26 0.77 3.58 7.71 10.74 11.40 13.56 14.26 14.21 12.37 12.84 13.06 13.09 13.57 13.86 14.57 15.18 14.85 13.98 13.52 14.08 13.43 13.22 13.95 14.63 14.25 15.45 17.22 17.20 16.36 17.99
34.52 32.54 30.24 29.98 29.29 17.74 9.69 8.80 11.40 10.97 7.55 13.57 14.06 11.37 11.18 11.45 12.84 13.49 14.54 14.94 14.59 12.45 4.67 0.86 5.32 8.22 9.90 12.90 16.77 15.53 15.60 15.56 14.54 12.25 11.93 12.84 12.97 12.71 13.07 13.14 12.69 13.76 12.47 12.48 13.69 16.19 13.34 14.57 15.17 15.00 17.89 18.30 15.15 16.07
31.07 29.34 28.29 24.95 15.67 12.25 7.17 2.63 4.88 5.08 10.04 12.10 14.16 14.68 14.50 13.96 8.10 7.01 10.09 14.99 8.46 4.76 4.72 7.31 9.71 12.89 15.22 15.64 16.78 17.09 15.81 15.93 13.87 13.90 12.35 11.14 13.20 13.26 12.41 12.56 12.19 12.69 10.35 10.56 10.16 11.11 13.47 13.00 15.37 14.57 13.46 15.72 16.98 17.22
25.29 27.93 19.64 21.51 11.56 6.74 4.58 2.53 3.78 5.78 7.07 6.45 9.97 13.19 9.90 8.72 8.07 6.44 13.58 5.64 5.50 8.89 10.15 11.44 12.96 14.62 13.44 12.71 13.42 15.33 16.29 16.34 15.85 16.02 16.88 15.41 11.89 11.63 11.39 12.44 11.81 9.37 10.29 10.42 11.02 10.98 11.42 13.75 16.82 14.15 13.53 14.95 15.93 15.73
25.37 23.49 14.39 11.48 6.75 4.86 0.35 4.34 2.70 0.44 1.85 0.86 1.89 6.69 6.06 7.13 5.17 10.81 5.94 8.90 10.75 14.02 14.78 14.15 13.98 15.00 13.54 13.38 13.51 13.19 14.41 13.87 12.13 11.92 11.98 11.26 11.57 13.09 12.24 11.56 11.72 8.95 8.86 10.26 12.15 11.62 10.79 15.72 14.70 13.85 12.70 12.87 12.87 11.95
20.58 6.04 1.82 0.88 2.61 -0.14 3.56 -0.13 5.50 3.29 -0.02 -0.45 -0.69 -0.83 5.24 5.28 7.40 7.88 5.23 9.47 12.34 15.39 14.75 14.41 14.74 12.71 13.20 13.03 10.74 10.53 11.63 12.68 11.19 10.52 11.07 11.08 10.00 8.56 10.99 10.90 11.13 10.99 11.34 11.17 10.35 10.57 10.43 10.31 13.86 10.79 10.69 9.69 9.65 8.60
7.85 2.71 2.08 -1.88 1.42 0.37 -1.69 -1.36 -2.96 0.16 -2.76 -4.63 -4.14 -2.53 -0.05 0.93 6.27 7.97 7.89 9.55 12.28 13.47 14.11 14.88 15.32 15.64 12.15 10.61 10.95 10.44 11.64 12.57 10.78 8.47 9.11 10.05 8.02 7.34 9.24 10.13 10.39 10.66 10.91 4.67 7.20 7.96 8.22 7.28 7.07 6.82 7.45 9.96 11.05 5.71
-1.31 -1.07 -0.34 -0.24 0.97 1.42 0.86 -2.02 -3.73 -4.88 -3.74 -5.54 -3.25 -1.45 -2.92 -0.10 1.18 1.53 9.52 11.89 12.50 13.63 13.66 14.16 13.65 12.27 11.44 12.77 10.64 10.40 9.97 10.93 11.42 8.96 8.99 9.53 7.83 6.41 5.35 6.06 6.35 8.53 10.41 8.07 3.01 2.15 5.27 4.65 2.42 2.43 3.14 5.40 12.92 3.59
-2.37 -2.45 6.39 12.15 8.21 6.93 4.57 5.10 4.86 1.03 -6.41 -5.63 -2.44 -3.75 -3.67 -5.42 -4.60 3.98 8.69 11.62 12.88 14.03 15.38 15.09 14.47 13.68 11.90 10.76 10.64 10.37 9.95 9.25 8.76 7.78 9.05 10.02 9.35 8.04 7.14 3.00 2.95 8.48 9.18 8.14 4.03 2.64 4.77 4.83 3.94 4.83 3.57 3.06 2.21 2.92
5.39 5.08 -0.76 1.21 2.89 2.79 -2.03 -1.29 -4.00 -5.52 -1.52 2.70 2.31 -6.12 -5.36 -2.32 1.27 5.58 7.91 9.95 10.64 11.42 10.69 10.33 10.68 11.21 10.69 8.89 8.22 7.64 5.51 4.73 4.05 5.33 6.74 6.72 5.42 4.95 4.56 5.50 6.48 14.54 11.30 3.92 5.97 8.54 5.87 2.96 6.79 6.64 3.22 2.36 2.28 2.24
2.88 8.00 7.38 -5.50 -5.62 -2.93 -3.99 -2.63 -1.69 2.45 4.79 2.09 -2.44 -0.75 -0.50 4.66 2.38 3.05 7.42 9.78 10.90 10.44 9.13 8.04 6.67 6.68 6.19 5.50 5.87 5.59 4.43 4.95 4.88 3.77 4.69 5.87 5.41 5.11 2.92 3.28 2.38 1.35 -0.16 0.16 12.92 14.10 10.08 11.78 5.82 4.57 0.91 0.14 2.45 1.40
-0.88 3.64 -1.25 -9.35 -5.76 -3.43 -2.12 -0.35 -2.69 -1.88 2.07 0.86 1.12 0.69 2.58 2.65 2.94 4.55 4.62 2.99 7.27 8.27 9.58 9.45 8.70 6.87 6.46 5.30 4.95 3.76 3.77 4.59 5.06 5.64 4.86 4.33 4.88 4.59 2.81 1.21 0.11 -0.20 -0.81 -1.28 -1.88 -1.74 11.10 4.57 3.22 -2.27 -3.43 -4.26 -3.62 -3.73
2.56 -0.44 -3.75 -2.98 -5.01 -4.27 -4.85 -3.96 -4.19 0.13 -4.38 -6.95 -6.75 -5.72 -2.62 -2.32 1.82 3.07 1.93 1.31 4.08 7.84 6.73 5.87 5.23 5.08 6.22 6.74 5.46 4.20 4.17 4.18 2.36 1.72 0.52 0.81 0.99 0.97 1.73 0.95 -0.31 -2.06 -2.48 -3.29 -4.65 -5.14 -7.08 -6.57 -7.03 -8.04 -8.66 -10.36 -8.07 -4.66
-1.04 -7.66 -5.41 -6.74 -6.15 -7.32 -7.32 -8.42 -9.04 -8.48 -7.97 -8.62 -7.23 -8.10 -7.17 -5.14 -3.29 -0.32 -0.41 0.41 -0.21 4.03 9.51 9.73 7.59 7.02 6.84 6.37 5.95 4.47 11.62 4.12 4.05 3.48 2.00 1.10 0.48 2.89 3.97 3.34 -0.28 -1.35 -1.17 -2.73 -5.50 -6.88 -8.15 -9.60 -9.82 -9.78 -8.97 -11.05 -11.69 -10.98
-10.72 -10.34 -12.07 -9.32 -8.94 -8.71 -7.04 -7.81 -8.02 -10.45 -8.40 -8.84 -5.99 -5.32 -6.46 -3.56 -3.02 -0.27 -2.87 -3.49 0.01 4.77 7.55 8.75 7.95 7.15 6.02 5.32 4.22 3.31 7.90 1.68 3.91 12.63 14.27 15.75 18.40 16.21 13.97 3.43 4.48 3.95 0.78 -1.90 -4.67 -6.57 -8.22 -10.18 -10.69 -11.38 -12.57 -13.52 -13.21 -13.40
MSLP
1027.04 1027.29 1027.39 1027.33 1027.21 1027.09 1026.80 1026.43 1026.16 1025.89 1025.72 1025.45 1025.11 1024.62 1024.16 1023.78 1023.38 1023.21 1022.65 1022.09 1022.42 1022.45 1021.43 1020.99 1020.99 1020.93 1020.81 1020.92 1021.01 1020.61 1020.45 1020.19 1019.96 1019.85 1019.57 1019.15 1018.69 1018.07 1017.79 1017.08 1016.61 1016.63 1015.99 1015.58 1015.09 1014.76 1014.34 1013.47 1012.10 1013.17 1014.87 1013.97 1013.39 1012.53
1026.70 1026.99 1027.07 1027.09 1027.04 1026.89 1026.59 1026.24 1025.98 1025.75 1025.49 1025.21 1024.78 1024.28 1023.73 1023.29 1022.89 1023.06 1022.70 1022.26 1022.15 1022.40 1021.55 1021.04 1020.59 1020.41 1020.57 1020.64 1020.87 1020.82 1020.81 1020.70 1020.56 1020.47 1020.21 1019.86 1019.33 1018.95 1018.49 1017.72 1016.96 1017.57 1017.97 1017.61 1017.16 1016.23 1016.28 1015.46 1015.61 1015.57 1015.16 1014.58 1013.52 1012.94
1026.56 1026.66 1026.74 1026.83 1026.80 1026.54 1026.39 1025.95 1025.63 1025.46 1025.26 1024.88 1024.42 1023.85 1023.40 1023.16 1022.89 1023.08 1022.79 1022.75 1022.59 1022.57 1021.37 1020.67 1020.24 1020.32 1020.22 1020.27 1020.52 1021.04 1020.37 1020.39 1020.40 1020.19 1020.25 1020.01 1019.75 1019.35 1019.20 1018.69 1018.64 1018.72 1018.57 1018.71 1017.98 1016.15 1016.32 1015.72 1015.44 1015.51 1015.14 1014.53 1013.77 1013.16
1026.40 1026.45 1026.41 1026.44 1026.37 1026.17 1025.94 1025.69 1025.34 1025.16 1024.93 1024.55 1024.14 1023.69 1023.21 1022.83 1022.91 1023.00 1023.26 1023.43 1023.31 1023.20 1022.30 1020.83 1020.33 1020.30 1020.38 1020.32 1020.38 1020.51 1020.52 1020.45 1020.43 1020.29 1020.08 1019.94 1019.86 1019.57 1019.54 1019.70 1020.41 1021.78 1020.77 1020.72 1019.22 1017.81 1016.75 1015.04 1015.60 1015.65 1015.34 1014.86 1014.13 1013.35
1026.17 1026.11 1026.10 1026.11 1026.02 1025.81 1025.58 1025.33 1025.07 1024.88 1024.66 1024.30 1023.78 1023.30 1023.00 1022.61 1022.68 1022.91 1023.26 1023.43 1023.34 1023.72 1022.93 1021.46 1020.64 1020.44 1020.37 1020.43 1020.45 1020.49 1020.46 1020.31 1019.91 1019.64 1019.67 1019.74 1019.76 1020.02 1019.69 1020.24 1022.43 1023.51 1023.07 1022.04 1020.56 1019.42 1018.93 1017.36 1016.63 1016.21 1015.82 1015.19 1014.46 1013.83
1025.93 1025.90 1025.94 1025.89 1025.72 1025.42 1025.18 1025.04 1024.82 1024.56 1024.22 1023.86 1023.32 1022.87 1022.79 1022.74 1022.53 1022.63 1022.88 1023.33 1023.24 1023.33 1023.13 1022.10 1020.91 1020.80 1020.72 1020.57 1020.59 1020.55 1020.42 1020.32 1020.03 1020.15 1020.64 1020.74 1021.34 1021.38 1021.19 1022.08 1023.68 1023.94 1023.49 1022.60 1021.21 1019.79 1018.68 1017.57 1017.02 1016.47 1016.06 1015.40 1014.77 1014.44
1025.86 1025.78 1025.77 1025.63 1025.35 1025.02 1024.91 1024.70 1024.59 1024.21 1023.85 1023.46 1023.02 1022.82 1022.54 1022.63 1022.45 1022.69 1023.34 1023.45 1022.97 1023.07 1023.05 1022.59 1021.58 1021.29 1021.15 1020.96 1020.83 1020.77 1020.51 1020.71 1020.73 1021.22 1021.86 1022.06 1022.19 1021.90 1022.90 1024.40 1024.52 1023.75 1023.03 1021.93 1020.68 1019.71 1018.67 1017.78 1017.24 1016.75 1016.26 1015.91 1015.66 1015.43
1025.69 1025.56 1025.54 1025.39 1025.07 1024.93 1024.75 1024.57 1024.26 1023.78 1023.31 1023.09 1022.94 1022.65 1022.59 1022.65 1022.88 1022.94 1023.50 1023.67 1023.19 1022.95 1022.98 1023.18 1022.71 1021.95 1021.89 1021.73 1021.35 1020.85 1020.93 1021.02 1021.53 1021.90 1022.42 1022.74 1023.09 1023.81 1024.78 1025.55 1024.80 1023.79 1022.52 1021.11 1020.35 1019.69 1018.89 1018.09 1017.49 1017.13 1016.89 1016.65 1016.44 1016.37
1025.40 1025.36 1025.34 1025.27 1024.81 1024.76 1024.65 1024.19 1023.92 1023.48 1023.00 1022.91 1022.85 1022.56 1022.81 1022.96 1022.93 1023.63 1023.64 1023.59 1023.56 1023.65 1023.33 1023.89 1024.09 1023.48 1022.81 1022.40 1021.92 1021.28 1020.92 1021.59 1021.86 1022.57 1022.94 1023.65 1024.81 1025.95 1026.60 1025.84 1025.02 1024.00 1022.92 1021.53 1020.69 1019.99 1019.39 1018.92 1018.62 1018.27 1017.94 1017.79 1017.55 1017.59
1025.22 1025.18 1025.21 1025.05 1024.65 1024.64 1024.45 1023.93 1023.59 1023.22 1022.97 1022.92 1022.77 1023.00 1023.16 1023.77 1023.38 1023.61 1023.65 1023.67 1024.04 1024.27 1024.25 1025.11 1025.05 1024.55 1024.27 1023.23 1022.38 1021.91 1021.37 1021.83 1022.31 1023.02 1023.27 1024.39 1026.16 1027.04 1026.76 1026.09 1025.31 1024.29 1023.24 1022.08 1021.43 1020.97 1020.50 1020.16 1019.76 1019.46 1019.25 1019.09 1018.91 1018.72
1025.03 1025.06 1025.06 1024.84 1024.67 1024.46 1024.15 1023.78 1023.53 1023.15 1022.99 1023.08 1023.33 1023.82 1024.17 1023.68 1023.66 1024.84 1025.41 1025.25 1025.42 1025.74 1025.99 1026.27 1026.24 1025.77 1024.53 1024.47 1023.52 1022.68 1022.55 1022.54 1023.06 1023.64 1023.81 1025.36 1026.69 1027.21 1026.89 1026.22 1025.54 1024.70 1023.91 1023.26 1022.74 1022.29 1021.90 1021.48 1021.11 1020.85 1020.60 1020.32 1020.15 1020.01
1024.81 1024.81 1024.78 1024.59 1024.52 1024.23 1023.97 1023.76 1023.66 1023.75 1024.13 1024.18 1024.19 1024.41 1024.42 1024.92 1025.66 1026.68 1027.23 1026.84 1026.80 1027.23 1027.29 1027.18 1026.95 1026.38 1025.47 1024.74 1023.97 1023.35 1023.36 1023.39 1024.01 1024.14 1024.95 1026.63 1027.89 1027.81 1027.24 1026.74 1026.21 1025.56 1024.86 1024.26 1023.84 1023.47 1023.07 1022.76 1022.46 1022.10 1021.78 1021.63 1021.55 1021.53
1024.69 1024.59 1024.49 1024.37 1024.24 1024.08 1023.96 1023.94 1024.05 1023.98 1024.17 1024.12 1024.49 1025.60 1026.27 1027.73 1028.54 1028.70 1028.89 1028.47 1028.21 1028.29 1028.23 1027.89 1027.26 1026.27 1025.54 1025.06 1024.49 1024.30 1024.20 1024.74 1024.65 1025.29 1026.75 1028.21 1028.67 1028.45 1028.13 1027.71 1027.18 1026.61 1026.01 1025.44 1024.91 1024.60 1024.29 1024.09 1023.67 1023.42 1023.31 1023.32 1023.19 1023.00
1024.45 1024.43 1024.11 1024.27 1024.25 1023.96 1024.07 1024.27 1024.21 1024.24 1024.22 1025.26 1026.33 1028.15 1028.81 1029.78 1030.39 1030.30 1030.25 1029.84 1029.34 1028.91 1028.59 1028.24 1027.52 1026.59 1025.83 1025.33 1025.18 1025.23 1025.44 1025.12 1025.89 1026.93 1028.07 1028.97 1029.16 1029.03 1028.79 1028.49 1027.92 1027.47 1026.97 1026.57 1026.26 1025.94 1025.70 1025.52 1025.29 1025.00 1024.99 1024.77 1024.46 1024.34
1024.14 1023.88 1024.16 1024.23 1024.02 1024.02 1024.31 1024.43 1024.37 1024.60 1025.39 1027.23 1028.07 1029.69 1030.47 1030.40 1030.48 1030.57 1030.40 1030.05 1029.37 1028.95 1028.69 1028.30 1027.64 1027.06 1026.24 1026.05 1025.95 1025.94 1026.10 1026.75 1027.21 1028.07 1028.87 1029.46 1029.56 1029.43 1029.29 1029.02 1028.67 1028.32 1028.06 1027.78 1027.50 1027.19 1026.84 1026.46 1026.42 1026.60 1026.46 1026.27 1025.98 1025.83
1023.78 1024.03 1024.13 1024.04 1023.97 1024.32 1024.26 1024.47 1024.51 1025.14 1026.84 1028.25 1029.37 1030.60 1030.55 1030.45 1030.45 1030.28 1030.09 1029.69 1029.09 1028.90 1028.75 1028.63 1028.00 1027.37 1027.18 1027.01 1026.89 1027.16 1027.11 1027.60 1028.43 1028.95 1029.54 1029.80 1029.92 1029.88 1029.76 1029.53 1029.34 1029.18 1029.01 1028.85 1028.43 1028.15 1027.78 1027.77 1027.92 1027.93 1027.66 1027.39 1027.23 1027.05
1023.46 1023.81 1023.96 1023.99 1024.17 1024.43 1024.36 1024.48 1025.27 1027.05 1028.13 1029.52 1030.32 1030.51 1030.52 1030.29 1030.42 1030.07 1029.78 1029.57 1029.23 1029.13 1028.54 1028.45 1028.47 1028.31 1027.99 1027.78 1028.07 1028.17 1028.18 1028.49 1029.09 1029.75 1029.95 1030.15 1030.45 1030.60 1030.47 1030.20 1030.02 1029.85 1029.65 1029.53 1029.49 1029.30 1029.19 1029.05 1029.01 1028.72 1028.52 1028.57 1028.35 1028.18
1023.65 1023.97 1024.05 1024.09 1024.16 1024.49 1025.22 1025.62 1026.68 1027.93 1029.34 1030.28 1030.64 1030.60 1030.07 1029.91 1030.05 1029.94 1029.92 1029.73 1029.56 1029.14 1029.03 1029.33 1029.32 1029.10 1029.01 1028.78 1028.79 1028.97 1029.24 1029.55 1029.83 1030.24 1030.80 1031.04 1031.09 1031.17 1031.18 1031.14 1031.06 1030.92 1030.81 1030.83 1030.69 1030.53 1030.35 1030.11 1029.82 1029.65 1029.52 1029.38 1029.17 1028.92
1023.88 1024.13 1024.36 1024.10 1024.06 1024.58 1026.24 1027.64 1028.12 1029.29 1030.08 1030.15 1030.22 1030.24 1029.94 1029.96 1029.92 1030.07 1029.99 1029.90 1029.73 1029.65 1029.76 1029.97 1030.27 1030.20 1030.04 1029.77 1029.39 1029.40 1029.63 1030.05 1030.65 1031.16 1031.54 1031.91 1032.06 1031.92 1031.78 1031.69 1031.71 1031.78 1031.89 1031.76 1031.60 1031.44 1031.32 1031.16 1030.97 1030.59 1030.28 1030.05 1029.92 1029.73
1024.01 1024.45 1024.46 1024.34 1024.00 1025.52 1027.84 1029.19 1029.11 1029.64 1030.38 1030.26 1030.27 1030.22 1030.15 1030.27 1030.31 1030.47 1030.39 1030.22 1030.09 1030.30 1030.75 1031.06 1031.15 1031.15 1030.92 1030.56 1029.93 1029.83 1029.97 1030.30 1030.66 1031.27 1031.98 1032.36 1032.57 1032.75 1032.89 1032.88 1032.82 1032.75 1032.73 1032.54 1032.34 1032.12 1031.97 1031.74 1031.53 1031.33 1031.00 1030.80 1030.72 1030.50
1024.33 1024.72 1024.52 1024.69 1025.87 1026.98 1029.29 1030.66 1030.75 1030.84 1030.67 1030.59 1030.52 1030.42 1030.33 1030.47 1030.74 1030.74 1030.73 1030.61 1030.84 1031.35 1031.61 1031.73 1031.62 1031.56 1031.44 1031.13 1030.63 1030.50 1030.50 1030.52 1030.83 1031.02 1031.76 1032.59 1032.97 1033.09 1033.28 1033.37 1033.36 1033.42 1033.45 1033.38 1033.22 1032.98 1032.57 1032.36 1032.12 1031.95 1031.76 1031.48 1031.21 1030.90
1025.07 1024.94 1025.41 1025.64 1027.20 1028.72 1030.45 1031.61 1031.58 1031.41 1031.32 1031.12 1030.95 1030.73 1030.73 1030.77 1030.93 1030.97 1030.94 1031.08 1031.59 1031.89 1031.99 1031.97 1031.94 1031.77 1031.86 1031.76 1031.56 1031.35 1031.32 1031.38 1031.58 1031.82 1032.29 1032.75 1033.32 1033.56 1033.78 1033.87 1033.86 1033.89 1033.96 1033.95 1033.71 1033.57 1033.33 1032.95 1032.39 1032.50 1032.24 1031.86 1031.56 1031.29
1025.28 1025.47 1026.57 1027.45 1028.51 1029.90 1032.05 1031.83 1032.05 1032.08 1032.11 1032.26 1031.72 1031.53 1031.40 1031.27 1031.36 1031.15 1031.28 1031.52 1031.86 1032.06 1032.09 1032.19 1032.29 1032.31 1032.34 1032.33 1032.23 1032.19 1032.11 1032.22 1032.58 1032.92 1033.33 1033.69 1033.92 1034.12 1034.33 1034.47 1034.49 1034.46 1034.41 1034.41 1034.32 1034.13 1033.88 1033.37 1033.19 1032.93 1032.83 1032.55 1032.29 1032.12
1026.48 1028.10 1029.10 1029.56 1030.48 1031.75 1032.02 1032.54 1032.30 1032.53 1032.54 1032.60 1032.56 1032.39 1032.13 1031.89 1031.60 1031.31 1031.46 1031.57 1031.89 1032.01 1032.11 1032.31 1032.45 1032.62 1032.72 1032.77 1032.95 1033.15 1033.14 1033.14 1033.36 1033.70 1033.89 1034.06 1034.46 1034.76 1034.78 1034.88 1034.94 1035.01 1034.99 1034.92 1034.77 1034.62 1034.56 1034.42 1034.03 1033.98 1033.61 1033.25 1032.90 1032.75
1028.10 1031.08 1031.10 1031.51 1031.73 1032.26 1032.86 1032.98 1032.94 1033.01 1033.49 1033.60 1033.41 1033.09 1032.75 1032.52 1032.04 1031.54 1031.41 1031.62 1031.77 1031.95 1032.19 1032.40 1032.47 1032.49 1032.78 1033.21 1033.49 1033.73 1033.83 1033.78 1034.03 1034.43 1034.77 1034.79 1034.96 1035.15 1035.32 1035.38 1035.57 1035.61 1035.53 1035.57 1035.52 1035.47 1035.30 1035.11 1034.86 1034.52 1034.16 1033.77 1033.39 1033.37
1029.96 1032.15 1032.40 1032.50 1032.72 1032.72 1033.25 1033.43 1033.59 1033.96 1033.94 1033.95 1033.85 1033.60 1033.19 1032.99 1032.57 1032.17 1031.62 1031.52 1031.69 1031.93 1032.20 1032.40 1032.58 1032.87 1033.13 1033.26 1033.69 1034.05 1034.32 1034.35 1034.46 1034.88 1035.35 1035.38 1035.43 1035.59 1035.82 1035.88 1035.92 1035.95 1035.87 1035.84 1035.94 1035.69 1035.41 1035.24 1035.11 1034.92 1034.69 1034.51 1034.20 1034.03
1031.98 1032.76 1032.69 1032.58 1032.73 1033.11 1033.42 1033.62 1033.67 1033.91 1034.17 1034.32 1034.21 1033.97 1033.88 1033.50 1033.01 1032.53 1032.22 1032.13 1032.11 1032.24 1032.42 1032.66 1032.80 1033.01 1033.33 1033.79 1034.16 1034.41 1034.66 1034.79 1034.96 1035.30 1035.47 1035.66 1035.82 1035.86 1035.91 1036.15 1036.12 1036.05 1035.81 1035.87 1035.78 1035.57 1035.41 1035.28 1035.05 1034.93 1034.83 1034.70 1034.54 1034.33
1032.45 1032.85 1033.14 1033.39 1033.48 1033.77 1034.10 1034.22 1034.45 1034.44 1034.44 1034.45 1034.52 1034.43 1034.14 1033.63 1033.32 1032.98 1032.81 1032.81 1032.77 1032.86 1033.13 1033.38 1033.50 1033.58 1033.87 1034.25 1034.48 1034.78 1035.12 1035.29 1035.43 1035.61 1035.86 1035.94 1036.05 1036.13 1036.20 1036.21 1036.14 1035.31 1035.45 1036.01 1035.64 1035.17 1035.04 1034.80 1034.70 1034.66 1034.92 1035.01 1034.88 1034.38
1032.98 1033.25 1033.55 1034.30 1034.60 1034.65 1034.83 1034.93 1034.92 1034.87 1034.85 1034.98 1035.09 1034.73 1034.18 1033.53 1033.32 1033.20 1033.17 1033.13 1033.17 1033.34 1033.56 1033.83 1034.16 1034.26 1034.51 1034.71 1034.90 1035.08 1035.23 1035.45 1035.77 1035.97 1036.03 1036.17 1036.30 1036.54 1036.40 1036.42 1036.49 1036.46 1036.45 1036.36 1035.18 1034.71 1034.56 1033.93 1034.07 1034.17 1034.76 1035.06 1034.88 1034.62
1033.88 1033.93 1034.41 1035.05 1035.41 1035.61 1035.53 1035.40 1035.44 1035.43 1035.32 1035.41 1035.40 1034.95 1034.43 1033.81 1033.30 1033.17 1033.44 1033.47 1033.55 1033.54 1033.52 1033.66 1033.95 1034.29 1034.56 1034.82 1035.08 1035.34 1035.37 1035.41 1035.50 1035.75 1035.79 1035.97 1036.09 1036.24 1036.42 1036.56 1036.55 1036.42 1036.36 1036.42 1036.21 1036.11 1034.89 1034.98 1034.90 1035.25 1035.10 1035.47 1035.33 1035.17
1034.26 1034.49 1035.11 1035.50 1036.07 1035.89 1035.93 1035.85 1035.85 1035.83 1035.81 1036.07 1035.83 1035.79 1035.02 1034.35 1033.55 1033.14 1033.49 1033.47 1033.61 1033.65 1033.73 1033.92 1034.11 1034.26 1034.43 1034.61 1034.83 1035.10 1035.31 1035.40 1035.46 1035.57 1035.69 1035.85 1036.01 1036.11 1036.16 1036.11 1036.07 1036.15 1036.26 1036.51 1036.34 1036.19 1035.97 1035.90 1036.01 1036.37 1036.37 1036.39 1036.25 1035.96
1034.85 1035.48 1036.04 1036.49 1036.50 1036.29 1036.33 1036.39 1036.29 1036.43 1036.20 1036.40 1036.02 1035.82 1035.38 1035.10 1034.45 1033.47 1033.32 1033.51 1033.81 1033.84 1033.53 1033.57 1033.81 1034.03 1034.19 1034.31 1034.43 1034.57 1034.69 1034.89 1035.19 1035.41 1035.62 1035.83 1035.85 1035.50 1035.33 1035.30 1035.55 1035.77 1035.86 1036.18 1036.15 1036.18 1036.28 1036.50 1036.84 1036.77 1036.70 1036.67 1036.55 1036.27
1035.90 1036.30 1036.49 1036.67 1036.91 1036.92 1036.73 1036.88 1036.62 1036.70 1036.43 1036.09 1035.80 1035.69 1035.39 1035.22 1034.44 1033.49 1033.45 1033.71 1033.77 1033.51 1033.51 1033.45 1033.63 1033.90 1034.04 1034.22 1034.39 1034.59 1034.34 1035.02 1034.99 1034.50 1034.43 1034.30 1033.89 1033.80 1033.96 1034.68 1034.85 1035.09 1035.54 1035.78 1035.93 1036.09 1036.28 1036.50 1036.91 1036.93 1036.94 1036.84 1036.54 1036.09
Wind_Speed
6 4 3 6 6 9 11 12 13 15 16 17 17 18 19 19 19 7 5 2 2 3 8 2 7 4 5 3 4 6 6 3 3 1 3 3 3 4 3 7 3 3 6 2 2 2 4 23 9 10 9 13 17 18
6 3 5 6 8 9 11 12 14 15 16 16 18 18 18 18 16 7 3 4 2 3 5 8 9 7 5 6 4 1 4 4 2 2 1 3 3 2 4 4 6 4 2 2 6 4 7 6 9 9 11 14 15 16
5 4 4 7 9 10 12 13 14 15 16 17 19 18 18 17 10 6 2 2 2 3 4 1 2 2 1 2 1 1 3 1 3 1 1 2 3 1 3 4 5 5 9 5 10 6 19 13 11 13 15 16 15 14
5 4 4 7 8 10 12 13 15 15 16 19 19 18 17 14 3 3 2 3 2 3 3 1 1 1 1 3 4 6 10 7 4 3 3 3 2 2 3 1 4 4 6 8 7 5 20 4 21 18 17 14 14 12
6 4 4 6 9 11 12 14 15 15 18 19 18 18 16 10 3 3 2 1 2 1 3 4 6 1 4 6 4 5 4 7 4 3 3 2 1 3 3 3 4 5 5 4 5 15 12 17 18 17 12 14 12 11
5 3 3 7 9 11 13 15 15 16 19 18 18 17 12 3 1 2 2 1 1 1 3 3 2 1 3 6 3 5 3 2 3 4 4 3 2 4 2 3 3 12 9 10 7 13 15 17 15 9 11 11 10 10
3 2 5 8 10 12 14 13 15 17 18 18 18 12 6 0 2 0 2 2 5 0 2 3 3 1 3 2 2 2 2 2 2 2 3 3 4 6 3 4 15 16 14 15 11 10 7 6 6 9 8 8 9 10
3 3 6 9 12 11 12 16 16 18 17 18 11 5 1 5 6 2 3 8 5 2 1 1 4 4 4 3 3 1 1 2 4 2 2 3 3 4 3 12 12 14 17 8 6 6 7 6 7 8 8 8 10 10
2 4 7 11 12 11 12 16 17 17 17 11 4 4 1 2 2 2 12 10 2 1 1 3 3 3 4 3 2 3 1 2 1 3 2 4 4 5 9 14 13 14 11 9 7 7 7 8 8 9 9 10 11 10
3 6 8 11 11 10 14 15 17 16 14 2 1 1 1 2 9 8 2 0 4 3 4 3 3 3 3 3 3 3 2 1 2 1 3 3 4 5 12 11 10 11 11 10 8 11 8 11 11 12 13 10 11 12
5 7 9 12 8 10 14 16 14 14 4 2 2 2 1 8 3 3 2 4 3 4 3 2 2 3 2 2 3 1 2 2 3 3 3 2 3 10 13 13 12 11 11 10 11 12 12 12 11 12 13 14 14 15
5 7 9 8 7 13 13 12 11 3 1 1 2 1 2 5 3 5 2 3 4 2 3 3 3 2 4 2 3 3 1 4 2 1 4 3 5 11 13 14 14 13 12 14 14 15 16 16 13 14 14 15 14 13
6 7 8 1 10 12 12 8 6 5 4 0 4 5 5 4 8 5 4 4 3 3 3 4 4 2 3 3 3 3 5 1 0 4 3 3 6 8 11 11 11 12 13 13 16 15 15 15 17 16 14 13 12 12
5 7 7 2 11 10 9 5 2 1 3 5 5 7 5 4 2 2 2 2 2 2 4 5 4 2 3 2 2 3 2 2 3 3 2 3 6 7 7 8 9 12 14 14 14 14 15 14 15 16 14 12 12 13
4 6 4 6 9 9 5 5 4 3 4 4 5 4 1 2 2 0 1 2 3 2 2 3 4 3 2 2 1 2 4 3 3 2 2 1 4 6 7 8 10 11 11 11 11 12 13 14 13 12 12 11 11 11
5 7 3 9 9 6 4 3 3 3 4 4 5 3 3 1 0 1 0 2 1 2 2 2 3 2 1 2 4 2 3 2 3 3 3 2 5 7 8 9 9 9 10 9 10 11 12 12 11 9 10 11 10 10
4 3 8 8 5 5 4 2 4 6 4 4 1 1 2 2 3 2 3 3 3 2 2 1 2 1 3 2 2 4 3 4 5 5 5 7 7 6 6 8 9 10 10 10 10 10 10 8 8 9 11 9 8 8
2 3 6 7 1 2 3 5 4 5 4 1 2 2 1 0 1 3 3 3 2 3 3 2 2 2 2 1 2 1 4 6 6 5 6 5 5 5 6 7 8 9 9 8 7 8 9 9 9 7 8 7 5 7
5 5 7 5 3 4 4 4 4 4 1 1 2 1 1 0 2 1 2 1 1 2 1 3 3 2 2 2 2 4 3 4 5 5 5 5 5 6 7 7 8 7 7 7 6 5 5 6 5 5 5 5 5 5
11 10 7 10 5 4 5 4 1 4 2 1 2 0 2 1 1 2 3 3 3 2 4 3 2 1 2 3 3 4 4 5 5 6 5 4 3 5 7 5 4 4 4 5 6 9 4 5 5 6 5 6 4 5
3 5 7 4 4 7 5 2 4 1 0 1 1 1 2 1 1 1 1 2 3 2 1 1 1 2 2 3 3 4 4 4 3 3 3 4 3 4 4 4 4 4 4 4 4 5 8 6 4 5 4 4 4 5
3 5 3 5 5 3 5 2 2 1 2 1 1 2 0 1 1 1 1 3 2 1 1 2 1 1 3 3 4 4 5 7 7 7 9 6 4 4 4 4 4 3 5 5 4 5 5 5 4 5 5 5 7 5
3 4 4 4 6 6 3 0 3 4 3 2 2 1 1 1 1 2 2 2 2 1 1 2 3 4 4 4 5 6 6 6 5 5 5 4 4 4 4 4 4 4 4 4 4 3 4 10 8 6 5 6 3 3
8 6 5 4 4 1 1 4 1 2 3 4 2 1 1 1 2 1 2 2 2 1 2 3 2 3 3 4 4 4 4 4 5 4 3 3 4 3 3 3 4 4 4 2 3 4 5 5 9 6 5 5 4 2
8 8 6 6 4 6 5 4 5 5 1 2 3 3 2 2 0 1 2 3 3 2 2 1 0 1 2 3 3 3 3 2 3 4 3 2 2 1 2 2 3 2 2 3 4 4 4 3 4 5 5 6 5 5
7 5 4 1 3 3 1 2 2 1 1 3 1 2 1 1 2 2 1 2 2 2 3 3 2 2 2 2 3 2 2 1 2 3 1 2 2 3 2 2 0 1 2 1 1 3 4 3 3 6 4 6 11 5
4 2 1 0 0 1 1 1 1 2 2 0 2 3 3 2 3 2 0 2 1 2 2 3 2 1 3 3 3 3 2 2 3 2 2 2 2 2 3 2 1 1 3 2 2 2 4 4 5 5 3 3 3 3
3 1 2 2 2 1 2 1 1 2 2 1 1 1 4 5 4 1 1 1 2 3 4 3 3 3 3 3 2 3 2 2 3 2 1 1 1 1 0 1 1 7 4 3 3 3 2 4 5 3 3 3 4 3
2 1 2 3 3 2 2 2 2 0 1 0 2 2 3 2 2 1 1 2 1 2 3 3 2 2 3 2 2 2 2 2 4 3 2 1 0 2 1 1 2 2 2 2 9 8 6 4 3 1 1 3 4 3
1 1 3 2 2 2 3 1 1 1 0 1 1 3 2 3 2 1 2 2 2 2 2 2 4 3 3 3 2 1 1 1 1 2 3 3 3 2 1 2 3 3 1 1 3 4 8 4 6 4 4 4 3 3
1 2 3 1 2 2 1 1 2 1 1 0 0 2 3 3 4 2 3 3 3 3 3 2 2 2 3 3 3 3 2 3 4 3 2 2 2 2 3 3 3 2 1 1 1 1 2 3 2 3 3 4 6 5
2 2 3 1 3 3 1 0 1 1 1 0 2 1 3 2 4 3 3 4 3 3 6 5 4 3 4 2 2 1 3 3 4 4 5 3 3 4 4 3 2 3 2 0 1 0 0 2 2 2 3 4 4 4
3 3 2 2 3 3 3 3 3 3 2 1 2 2 2 2 5 3 2 1 3 3 3 3 3 2 3 4 4 2 3 2 4 7 8 8 8 6 3 3 3 3 3 2 2 2 2 1 2 3 3 4 5 5
Wind_Direction
180 218 278 296 320 316 321 330 336 334 331 333 333 329 322 324 332 340 291 339 155 253 285 284 346 309 324 320 302 327 352 6 313 308 312 342 312 313 316 300 309 318 317 320 283 325 337 354 6 43 329 325 323 327
183 226 272 297 308 316 322 334 332 331 331 332 328 326 326 329 339 352 289 353 17 225 261 309 278 270 273 273 298 284 247 322 287 284 288 297 302 314 322 300 359 53 84 251 15 23 354 23 55 11 350 330 322 326
189 224 274 300 304 318 327 330 332 329 328 328 326 327 330 333 347 351 306 6 330 277 278 247 88 99 271 306 281 207 255 76 231 253 263 263 264 88 294 307 356 21 23 38 338 3 353 328 22 5 348 330 330 329
195 233 278 291 323 319 323 330 331 327 328 326 326 328 329 333 5 32 41 346 351 300 285 285 192 43 7 261 246 243 271 286 252 239 238 228 254 119 268 243 74 331 353 321 268 346 335 1 347 343 335 330 334 347
208 242 304 322 327 323 330 329 329 330 328 326 327 329 326 325 353 125 154 88 202 42 291 302 313 150 342 345 3 346 249 261 248 211 201 219 336 338 243 114 64 2 337 328 293 315 288 302 314 318 328 324 340 347
215 247 325 324 319 332 329 330 332 328 326 326 328 329 326 326 68 186 202 170 58 267 273 302 223 61 322 334 310 324 329 325 291 32 5 61 11 319 355 51 56 348 313 291 286 292 293 291 300 337 326 349 6 16
217 280 320 323 324 333 338 340 331 328 329 330 333 330 321 112 201 62 44 328 353 172 269 302 305 74 331 276 309 320 310 4 38 52 32 352 12 350 51 13 327 323 312 305 290 309 298 351 318 334 3 21 27 37
244 289 313 320 335 344 340 335 331 332 334 337 338 339 152 104 110 120 47 336 338 258 233 345 300 3 16 314 309 147 294 49 3 88 34 14 16 20 61 332 321 319 318 318 337 346 339 348 16 21 33 41 50 41
248 309 320 324 340 344 333 336 334 335 335 338 348 116 117 21 25 51 319 302 252 316 50 64 3 311 5 270 279 305 210 77 267 47 16 64 15 38 335 328 334 327 326 321 348 7 13 34 37 38 45 44 58 54
289 304 319 324 340 340 336 337 338 337 334 330 187 66 103 16 334 328 271 202 5 338 12 66 341 297 3 337 277 319 1 32 77 257 122 62 90 347 350 336 336 341 354 9 29 26 28 39 43 44 47 48 55 56
306 315 322 326 355 343 342 345 343 340 334 11 31 46 333 317 49 356 19 63 310 41 18 335 99 320 345 317 307 70 318 328 56 339 66 53 33 1 351 357 359 1 15 32 49 48 47 46 47 50 51 53 52 53
312 310 311 354 355 353 352 351 358 37 41 110 123 126 5 35 2 78 323 337 41 54 26 351 310 270 294 282 273 336 32 31 37 325 54 35 14 357 359 2 5 9 23 39 42 48 46 42 42 49 49 48 48 50
295 309 321 35 359 356 358 6 36 106 154 142 54 44 40 342 29 48 355 347 30 9 31 336 322 297 285 231 276 360 55 51 340 36 59 62 2 5 2 358 7 16 28 37 40 41 45 44 41 41 45 44 50 51
299 299 341 101 357 4 6 36 99 99 65 68 59 21 74 351 18 318 334 342 344 3 330 318 278 298 302 324 317 65 279 41 53 54 55 37 10 3 9 8 12 21 27 33 36 41 46 44 47 43 39 38 46 47
286 328 117 19 2 19 38 82 83 31 66 66 54 56 22 206 211 229 300 295 272 296 310 307 269 234 308 338 340 7 32 60 36 81 68 18 19 15 21 22 25 29 30 33 35 36 42 43 43 42 37 39 45 48
320 122 50 9 16 29 126 117 43 83 52 67 54 32 296 327 338 258 305 285 313 342 306 231 271 293 27 314 39 360 59 78 96 78 100 96 48 35 27 29 35 34 36 32 34 39 43 42 39 40 41 37 38 44
102 85 15 12 34 85 51 94 68 48 105 70 64 230 222 223 226 264 330 347 5 300 287 4 345 4 305 52 57 0 26 96 102 88 69 58 48 40 32 37 39 40 34 30 31 31 34 34 41 42 40 29 30 40
76 68 26 7 96 119 36 28 78 81 76 181 113 264 314 53 345 17 359 8 314 345 356 40 323 5 17 60 95 86 77 74 70 73 70 55 46 40 47 50 44 33 36 36 33 39 33 27 27 31 26 11 21 23
86 62 31 44 74 92 78 21 50 100 146 151 116 230 104 46 83 59 330 313 346 3 40 10 55 28 62 351 75 102 111 114 115 93 76 61 49 40 38 43 46 40 30 19 34 29 35 33 30 10 17 19 27 17
101 58 50 43 46 81 60 5 77 102 132 156 53 74 102 88 58 60 37 23 38 49 37 41 25 38 2 328 23 85 97 120 128 115 98 69 62 63 54 43 35 29 31 26 26 52 23 35 38 16 11 28 22 4
78 13 41 63 44 59 81 358 45 84 91 114 34 225 141 117 59 66 62 7 58 28 69 354 48 64 23 350 8 54 57 69 61 81 109 105 72 65 55 36 29 49 42 30 31 19 27 16 14 12 1 7 9 350
23 20 65 16 77 53 78 328 123 213 62 165 123 300 101 137 110 37 189 61 62 31 22 5 17 61 68 45 41 42 62 80 73 83 79 90 76 64 51 42 45 44 48 27 18 17 2 350 13 14 359 3 3 346
40 39 40 25 69 47 292 59 67 353 95 270 18 118 10 101 196 333 83 105 111 67 58 75 55 58 89 88 70 46 44 81 83 80 84 81 72 73 69 55 41 43 38 23 5 7 11 8 355 15 354 349 338 353
37 54 51 52 57 2 28 9 25 57 32 28 41 53 344 350 320 117 96 95 104 118 112 121 136 120 107 75 67 61 38 76 86 62 37 92 87 48 58 60 51 34 19 351 9 17 12 0 3 352 343 339 340 21
70 340 61 2 338 50 34 7 346 45 47 327 46 343 308 356 273 112 137 139 149 143 136 139 38 57 100 102 106 93 26 36 103 104 11 53 104 86 71 77 78 49 14 31 18 3 349 343 343 344 338 332 338 20
71 308 79 293 316 88 299 45 25 275 54 5 274 253 24 33 59 202 110 136 123 142 156 169 149 128 89 75 130 137 122 21 76 99 81 52 68 118 101 73 18 96 18 358 6 326 331 338 333 332 325 336 349 5
81 310 347 119 223 93 49 44 10 99 65 101 299 359 48 53 260 248 127 18 88 81 79 71 64 84 129 124 96 90 87 58 70 108 100 94 85 78 104 145 192 295 298 323 332 297 297 321 314 304 296 310 312 311
139 66 114 279 53 21 136 20 126 173 228 251 45 355 171 193 232 234 57 50 68 80 82 64 46 52 81 84 89 111 88 85 80 68 52 26 42 69 60 322 289 317 6 315 263 269 293 273 287 305 318 313 308 309
80 8 101 9 354 41 167 169 214 151 24 79 164 253 252 254 214 175 168 144 121 130 133 136 103 87 83 73 72 77 114 146 124 117 157 161 66 301 211 241 282 292 292 309 327 339 310 304 353 353 339 297 287 293
281 5 88 58 122 234 232 128 206 235 224 157 284 309 283 273 233 155 137 133 163 177 147 126 139 157 159 159 162 182 232 188 172 152 162 188 201 176 189 253 274 283 290 306 315 320 345 23 3 8 6 353 350 355
88 76 61 69 236 244 199 313 326 316 34 254 201 183 259 295 303 214 177 185 150 127 134 144 151 180 158 171 167 154 238 216 179 168 159 151 173 220 236 239 239 229 222 228 346 355 357 353 340 338 351 350 340 6
41 95 115 336 287 282 18 65 228 244 255 51 265 182 316 344 273 237 229 125 123 164 209 179 173 205 190 143 125 115 101 134 159 188 202 218 237 244 244 236 215 181 172 180 296 298 224 262 292 322 330 330 324 331
47 43 29 37 349 344 298 61 354 327 331 276 260 202 227 213 244 258 315 68 150 168 175 153 128 125 152 159 166 177 167 163 199 205 218 230 256 272 213 177 168 166 171 215 234 205 240 280 293 300 311 316 323 326